Find El Camino Real

NORAD ID: 44408 Int'l Des: 2019-038 Owner: MOMENT Country: US operational
LEOCIRCULARRETROGRADE

Current View

Loading 3D Globe...

About El Camino Real

Description loading...

Upcoming Passes

Passes for default location (London). Set your location on the main map for personalized predictions.

Altitude History

Loading altitude history...

Two-Line Element Set

1 44408U 19038Y 26149.57988727 .00049710 00000-0 50675-3 0 9993
2 44408 97.6771 193.2841 0009343 88.7580 271.4749 15.64912289383647
Epoch: May 29, 2026 • Age: 12 hours

Current Status

Altitude 383.2 km
Velocity 7.68 km/s
Sub-Earth Point -19.13°S, 100.96°E
Launch Date Jul 5, 2019
Age 6.9 years
Type other

Technical Details

Classification Payload
Mass 20.00 kg
Dry Mass 20.00 kg
Total Mass 20.00 kg
Length 0.40 m
Diameter 0.20 m
Span 0.40 m
Shape Box
Manufacturer ADIG
Bus Type Cubesat 16U
Phase Status In Orbit
Owner/State MOMENT/US

Most Searched